Location: Zagreb
(45.8000°N, 16.0000°E)
Time: 19:18:03
(UTC+02:00)

Altair - Visible Passes

Search period start: 11 April 2026 00:00
Search period end: 21 April 2026 00:00
Orbit: 1502 x 1682 km, 47.2° (Epoch: 11 April)

Date Brightness Start Highest point End Pass type
(mag) Time Alt. Az. Time Alt. Az. Time Alt. Az.
11 Apr 7.9 21:16:16 10° WNW 21:25:19 50° SW 21:31:21 22° SSE visible
11 Apr 9.1 23:23:26 10° W 23:28:10 15° SW 23:29:22 15° SW visible
12 Apr 7.9 20:50:58 10° WNW 21:00:10 53° SW 21:07:37 16° SE visible
12 Apr 9.0 22:57:41 10° W 23:03:06 17° SW 23:05:39 15° SW visible
13 Apr 7.9 20:25:41 10° WNW 20:35:00 57° SSW 20:43:56 10° SE visible
13 Apr 9.0 22:32:03 10° W 22:38:03 19° SW 22:41:58 14° SSW visible
14 Apr 7.9 20:00:23 10° WNW 20:09:48 60° SSW 20:18:54 10° SE visible
14 Apr 9.0 22:06:29 10° W 22:12:59 21° SW 22:18:20 13° SSW visible
15 Apr 9.0 21:40:58 10° W 21:47:55 23° SW 21:54:43 10° S visible
16 Apr 8.9 21:15:29 10° W 21:22:49 26° SW 21:29:59 10° S visible
17 Apr 8.9 20:50:03 10° WNW 20:57:44 28° SW 21:05:12 10° S visible
18 Apr 8.8 20:24:38 10° WNW 20:32:37 31° SW 20:40:23 10° S visible
